Theta_e
325 325 326 326 326 327 328 330 328 328 326 320 319 322 324 323 322 324 327 329 331 331 331 331 331 332 335 335 335 338 339 339 340 341 344 342 333 336 339 340 342 342 343 341 340 340 340 341 340 341 341 340 340 339 337 336 336 335 334 333 329 330 334 334 335 335 335 335 336 335 333 332 332 333 333 332 330 330 332 333 333 333 332 331 331 331 330 330 329 329 329 328 327 328 328 327 327
324 324 326 328 326 328 331 330 325 324 322 318 320 323 324 324 323 325 328 331 333 331 332 331 331 332 333 334 333 338 341 338 338 340 339 335 333 337 339 341 342 342 343 341 340 339 339 339 338 339 339 340 339 338 336 334 334 333 332 331 328 332 335 334 336 336 335 335 336 334 333 331 331 333 333 332 332 331 331 332 332 332 332 331 331 330 330 329 328 328 328 327 326 327 326 325 322
324 325 326 328 328 329 332 329 324 320 318 317 319 324 325 325 325 330 332 333 333 332 333 332 333 332 331 334 334 339 342 338 337 336 335 334 334 336 338 341 341 343 343 341 340 339 339 337 337 338 338 338 338 337 336 334 333 331 331 329 329 334 335 334 335 337 336 336 336 334 332 332 332 333 332 332 332 331 332 332 332 332 332 331 331 330 329 328 328 328 327 327 326 326 325 324 321
324 325 326 327 330 331 333 332 328 321 317 317 318 323 324 325 328 332 333 333 333 332 333 332 334 333 332 335 334 339 341 339 338 336 336 335 333 335 339 340 341 343 342 342 340 339 339 336 336 337 336 336 337 336 335 335 332 331 330 329 332 334 334 335 335 336 336 335 337 334 332 332 333 332 330 331 331 331 331 331 331 331 331 331 331 330 329 328 327 327 327 327 326 326 325 324 321
324 326 325 327 332 332 332 331 329 321 318 319 318 323 323 324 329 331 330 331 331 331 332 332 335 334 332 334 335 339 340 339 337 335 336 335 332 335 339 339 341 343 342 342 340 340 338 334 335 336 333 332 335 334 334 334 332 331 330 330 333 334 334 336 336 336 335 335 337 335 333 332 330 328 329 329 330 330 330 331 331 330 331 331 331 330 329 328 327 326 326 326 326 326 325 324 322
324 328 326 328 331 330 330 328 325 321 321 324 321 323 322 322 327 328 328 329 330 331 332 331 334 334 333 335 338 339 339 339 337 336 336 333 330 334 339 339 342 343 342 342 340 340 338 333 332 333 329 328 329 331 333 332 331 331 331 332 333 334 335 336 336 335 335 335 336 337 335 331 328 328 328 329 329 330 330 330 330 330 330 330 331 330 329 327 327 326 326 325 325 325 325 325 324
326 329 332 334 333 330 332 328 327 325 324 325 324 323 322 323 326 328 327 327 329 329 330 331 333 333 336 338 339 338 337 339 338 338 336 331 330 334 338 338 341 342 342 342 340 340 337 332 330 328 326 324 325 330 333 332 332 332 332 333 333 333 334 336 336 335 335 335 336 337 335 331 330 329 328 329 330 330 330 330 330 330 330 330 330 329 328 327 327 327 326 325 324 325 325 325 325
326 329 333 336 336 335 334 330 330 330 326 324 324 324 323 323 325 327 327 327 327 326 328 329 330 331 334 337 341 338 337 339 339 338 335 331 331 334 337 338 340 342 342 341 340 340 336 331 329 326 323 322 324 329 333 333 333 333 332 333 333 332 333 335 336 335 335 335 336 337 334 331 331 330 329 329 329 329 330 330 329 330 330 329 329 329 328 328 328 327 325 324 322 323 323 324 324
327 330 332 336 338 336 334 332 332 332 327 324 323 323 324 323 323 326 326 326 326 326 327 327 328 330 331 337 341 338 337 339 338 337 335 333 333 334 335 337 340 342 341 340 340 338 334 332 330 326 322 321 325 331 333 334 334 333 331 332 333 330 331 335 336 336 335 335 336 336 334 332 331 330 329 328 327 328 329 329 329 329 329 329 329 329 329 328 327 325 324 321 320 320 320 321 321
330 330 333 336 336 333 330 331 332 331 328 325 323 322 323 323 323 324 325 327 326 325 327 327 328 329 328 338 341 338 337 338 337 337 336 335 334 333 334 336 340 342 341 340 339 335 332 333 331 328 324 322 326 331 331 332 333 332 331 331 332 329 327 332 335 335 335 336 337 336 334 332 331 330 329 326 325 327 328 329 329 329 329 329 329 328 328 328 326 324 322 319 319 318 318 319 319
332 333 334 335 333 330 329 330 333 332 328 325 324 323 322 323 322 323 325 327 325 325 330 327 326 328 324 336 343 339 337 338 337 337 337 336 334 334 335 336 339 341 340 340 337 333 332 333 332 330 327 325 327 330 329 331 332 331 331 331 332 331 327 328 333 334 335 336 337 336 334 332 332 331 329 326 325 326 327 329 329 328 328 328 328 328 328 327 326 325 322 319 319 319 319 319 319
333 335 336 335 333 332 332 332 334 335 330 327 325 324 323 323 323 323 324 326 325 324 329 326 324 329 322 332 342 338 336 338 337 337 336 336 334 334 335 336 339 341 340 339 337 333 331 333 332 331 329 327 327 329 328 329 331 330 331 331 331 333 330 328 330 332 333 335 336 335 334 333 332 330 329 328 327 326 326 327 327 328 327 328 328 328 327 326 326 326 324 321 319 320 320 319 319
333 336 337 336 336 336 335 333 336 337 334 330 326 324 325 324 323 324 324 326 325 323 326 325 325 328 325 334 341 338 337 338 337 336 335 335 334 334 335 337 339 340 339 339 337 332 331 332 332 331 330 328 326 326 327 327 329 329 330 331 331 332 332 331 330 330 332 334 336 336 334 334 332 331 329 329 328 327 326 325 325 327 328 328 327 327 327 326 326 324 323 322 320 320 320 320 320
333 335 336 337 338 337 335 335 336 336 333 330 326 324 324 324 323 324 324 324 324 325 327 324 324 325 326 337 341 339 338 338 337 336 335 334 334 335 336 337 339 340 339 338 337 334 333 332 332 332 330 330 327 325 325 326 328 328 329 331 330 331 332 332 331 331 332 334 336 335 335 334 333 332 330 329 328 326 325 324 324 325 327 327 326 327 327 327 325 321 321 321 321 321 320 320 320
332 334 335 336 336 335 335 336 336 334 331 327 326 325 325 325 324 325 324 325 326 328 328 325 326 327 329 338 341 339 338 338 337 335 334 334 335 336 336 337 339 340 339 338 338 337 336 334 334 333 330 330 329 327 325 325 326 326 327 329 330 330 331 331 332 332 332 333 335 335 334 334 333 332 330 329 328 326 324 324 323 322 325 326 325 327 326 326 324 321 320 320 321 321 320 320 320
330 332 335 336 334 333 334 336 336 334 331 326 326 325 325 327 325 325 325 325 327 327 324 326 327 325 332 341 341 339 338 337 336 335 334 334 336 336 336 337 339 340 339 339 338 337 336 335 335 334 332 331 331 329 327 325 325 325 326 327 329 330 329 330 332 332 332 333 334 335 334 334 333 332 331 330 328 326 323 322 322 322 324 324 325 327 326 325 325 322 320 320 321 320 320 320 321
330 333 335 336 333 333 334 336 336 334 330 326 326 325 325 327 325 324 324 324 326 325 322 326 327 323 332 340 340 339 338 337 335 335 334 335 336 336 336 336 338 341 340 339 339 338 337 336 336 335 333 332 332 330 330 327 323 323 325 326 327 329 329 329 330 331 332 332 333 334 334 334 333 332 331 330 329 326 324 323 322 322 322 322 323 325 324 324 324 323 321 320 320 320 321 320 321
330 334 335 333 333 333 334 335 335 334 332 327 326 325 325 326 325 324 324 324 324 325 323 324 328 329 332 337 339 338 337 336 336 335 335 334 335 335 335 336 338 340 340 339 339 338 337 336 336 335 333 332 332 330 330 330 325 322 324 326 327 328 329 329 330 330 331 331 331 332 333 333 333 332 331 331 330 328 326 325 324 322 321 320 320 321 322 322 323 322 321 319 320 321 320 320 322
329 334 334 333 333 333 332 333 333 333 333 329 327 326 326 326 325 324 323 324 323 324 325 324 327 332 334 336 339 337 336 336 336 336 335 334 334 334 334 334 336 339 340 339 339 338 337 336 336 336 334 331 331 331 330 331 329 324 322 325 325 326 328 328 328 330 330 330 330 331 331 332 333 333 332 331 330 329 327 326 325 324 322 320 318 318 318 318 320 320 319 318 319 320 320 322 324
328 332 334 333 333 332 331 331 332 333 332 331 330 327 326 325 324 323 322 324 324 323 325 324 324 331 335 336 338 337 336 336 335 336 335 334 334 333 333 334 334 336 339 339 338 338 337 336 335 334 334 332 331 331 331 330 330 328 323 324 325 325 327 328 327 329 330 329 330 331 330 331 333 334 333 332 331 330 329 327 326 326 324 322 320 318 316 316 317 318 318 318 319 319 320 323 325
328 330 331 332 331 331 331 331 331 332 332 332 330 326 325 326 324 323 323 323 324 324 324 325 323 327 334 335 337 337 336 336 336 336 335 334 334 333 333 333 333 334 336 337 337 337 337 336 334 333 333 333 332 331 331 330 330 330 326 326 327 326 326 327 327 328 329 330 331 332 331 331 333 334 333 333 331 330 329 328 328 326 325 323 321 318 316 316 316 316 317 317 318 319 320 324 325
328 329 330 329 330 330 330 330 330 330 329 330 330 327 325 326 324 324 324 323 324 325 324 325 323 324 332 334 336 337 337 336 336 336 335 335 334 335 334 333 334 334 334 335 336 336 335 335 334 333 333 333 333 332 331 330 330 330 328 327 329 328 327 328 328 328 329 330 331 332 331 331 332 333 333 333 332 331 330 329 328 326 325 324 323 321 317 318 319 317 317 318 318 319 322 324 324
329 329 329 329 329 329 330 329 330 330 329 329 330 329 328 327 325 324 324 323 324 325 323 325 324 324 330 333 335 337 338 337 336 336 336 336 335 335 334 334 334 334 334 334 334 334 334 334 333 333 333 333 332 332 331 330 329 330 329 328 329 329 329 329 329 328 328 329 331 332 332 332 332 333 333 332 331 330 330 329 328 326 325 325 325 323 321 322 323 322 322 322 321 322 324 325 325
329 330 329 329 329 328 329 329 330 330 329 330 329 328 328 327 326 325 325 324 324 325 324 325 325 328 331 333 335 336 337 337 336 336 336 337 336 336 335 335 334 334 334 334 334 334 334 334 333 333 333 332 332 332 331 330 330 329 330 329 329 329 329 330 330 329 328 329 330 331 331 331 332 332 332 332 331 330 330 329 328 327 327 326 326 325 323 323 324 324 325 325 323 324 324 324 324
332 330 330 328 329 328 329 329 329 328 327 329 329 327 326 326 326 326 327 326 326 325 324 324 325 330 334 334 335 335 337 337 336 336 336 337 337 337 337 336 336 335 334 334 334 334 334 333 333 332 332 332 331 331 331 330 330 329 330 330 329 329 329 330 330 330 329 329 330 330 330 330 331 331 331 332 331 329 329 329 328 327 327 326 325 324 323 323 324 324 324 324 324 324 324 323 322
331 331 332 328 329 328 329 330 328 328 326 327 328 327 326 327 327 326 327 327 328 326 324 325 326 329 333 335 335 335 336 336 336 336 336 337 337 337 337 337 336 336 335 334 334 334 333 333 333 332 332 331 331 330 330 331 330 329 330 330 329 329 329 329 329 330 329 328 329 329 330 330 331 331 330 330 330 329 328 328 327 327 327 326 325 324 323 323 324 324 323 322 322 323 322 322 322
327 328 329 326 327 327 329 330 329 328 326 326 328 327 326 327 327 327 328 327 328 328 326 324 325 327 329 332 334 333 333 334 335 336 336 336 337 337 337 337 337 336 336 335 334 334 333 333 332 331 331 331 330 330 330 330 330 329 329 329 329 329 329 329 329 329 329 329 329 328 329 329 329 330 330 329 328 327 328 327 327 326 327 326 325 324 323 323 323 324 324 322 321 322 322 322 323
326 327 327 325 326 327 328 329 330 329 326 326 326 326 326 327 326 325 328 327 326 327 327 326 325 326 327 328 332 332 331 332 334 336 336 336 336 337 337 337 337 337 336 336 335 334 333 333 332 331 331 331 330 330 330 330 329 329 329 328 329 329 328 328 328 329 328 329 328 328 328 328 328 329 328 327 326 326 327 327 326 326 327 326 325 324 324 323 322 323 324 324 323 322 323 322 322
327 327 327 327 326 327 328 328 329 328 327 326 324 325 326 326 327 324 325 327 325 325 326 328 325 325 326 326 329 333 331 330 332 335 336 336 336 336 337 337 337 336 336 336 335 335 334 333 332 331 331 331 330 330 330 329 329 329 329 328 328 328 328 328 327 328 328 328 328 328 328 327 327 327 327 327 327 326 326 326 325 325 327 326 325 324 324 323 323 323 323 324 324 323 323 323 323
329 328 328 329 329 329 329 328 329 329 328 327 326 326 327 327 327 326 325 325 325 325 325 326 326 325 326 326 327 332 332 329 331 333 334 336 336 336 336 336 336 336 336 336 336 335 334 333 332 331 331 331 330 329 329 329 329 329 329 328 328 328 328 327 327 327 327 328 328 328 327 327 327 327 327 326 326 326 326 325 324 325 325 325 324 325 324 323 324 324 323 323 323 322 321 321 322
329 331 331 331 332 331 329 329 330 330 330 328 327 326 328 328 328 328 327 326 324 325 325 324 325 325 325 326 326 329 331 330 329 331 334 335 336 336 335 336 336 336 335 336 336 336 335 334 333 331 331 330 330 329 329 329 329 329 329 329 328 328 328 327 327 327 327 327 327 327 327 327 327 326 326 326 326 326 326 325 324 324 324 324 324 324 324 323 323 323 323 322 321 320 319 318 319
329 333 335 332 333 332 329 330 330 331 330 328 327 326 327 328 329 329 329 328 325 325 326 325 325 326 325 325 325 326 328 329 329 330 332 333 335 336 336 336 336 336 335 335 335 336 335 334 333 332 331 330 330 329 329 329 329 328 328 328 329 328 327 327 327 327 327 327 327 327 327 326 326 326 326 326 326 326 326 326 325 324 324 323 323 324 324 324 322 322 323 323 322 320 319 319 318
329 332 335 333 333 333 331 331 331 332 331 329 327 326 328 329 329 329 329 330 328 325 326 326 326 326 326 326 324 324 326 329 330 330 330 332 333 334 335 335 335 335 335 334 334 335 335 334 333 333 332 331 330 330 329 329 329 329 328 328 328 328 327 327 327 326 327 327 327 327 327 326 326 326 325 325 325 325 326 325 325 325 324 324 324 324 324 324 323 322 322 323 323 322 322 322 321
332 331 333 333 333 333 332 332 330 330 332 331 327 325 327 329 329 329 328 329 329 326 326 327 327 327 328 327 325 325 326 328 330 330 330 332 332 332 333 334 334 335 335 334 334 334 335 335 334 333 332 332 331 331 330 329 329 329 329 328 328 328 328 327 327 327 326 327 327 327 327 327 326 325 325 325 325 325 325 325 325 325 324 324 324 324 324 324 324 323 323 323 323 322 323 324 323
333 332 332 333 332 331 332 330 332 334 332 331 328 325 326 327 327 328 327 328 329 328 327 328 328 328 329 328 326 326 326 327 327 328 330 330 332 332 332 333 334 334 334 334 334 334 334 334 334 333 332 332 331 331 330 329 329 329 329 329 328 328 327 327 327 327 326 326 327 327 327 327 326 325 324 325 325 324 325 325 325 325 324 324 324 324 324 324 324 324 324 324 324 324 323 323 323
332 332 332 333 332 332 331 329 335 338 334 332 329 328 328 328 328 327 327 328 329 329 328 328 329 330 330 330 329 327 327 327 324 326 330 330 331 332 332 333 333 333 334 334 334 334 334 334 334 333 332 332 332 332 331 330 329 329 330 330 329 329 328 328 327 327 326 326 326 326 327 327 326 326 324 324 324 324 324 325 325 325 325 325 324 324 324 325 325 324 324 324 325 325 324 324 323
329 330 331 332 331 331 330 330 336 336 332 332 330 330 331 330 330 328 327 328 328 329 329 329 329 330 331 330 331 331 331 328 324 324 329 330 330 331 333 333 333 333 333 334 334 334 334 334 334 333 332 332 332 332 331 331 330 330 330 330 330 329 329 328 327 326 326 326 326 325 325 326 326 326 325 323 324 325 324 325 325 325 325 325 325 325 324 324 324 324 324 324 325 326 326 325 324
328 329 330 331 330 330 329 331 335 333 331 332 331 332 331 330 330 329 329 330 329 329 329 329 329 329 330 330 331 332 332 332 330 328 327 329 331 331 333 333 333 333 333 334 333 334 334 334 334 333 332 332 332 331 331 331 330 330 330 330 330 330 329 328 327 326 326 326 326 326 325 325 325 326 325 324 323 324 324 324 325 325 325 325 325 325 325 325 324 325 325 324 324 325 326 326 326
329 330 330 331 329 330 329 330 332 331 333 334 333 333 332 330 329 329 329 329 329 330 329 330 330 329 329 329 330 330 332 334 334 332 326 326 330 332 333 333 333 333 332 333 333 333 333 334 334 333 332 332 331 331 331 331 330 330 329 329 330 330 330 329 328 327 326 326 326 326 325 325 325 326 326 325 324 323 323 324 324 325 325 325 325 325 325 325 324 325 325 325 325 325 325 325 325
330 330 330 330 328 329 330 330 330 330 332 333 333 333 331 330 329 329 329 328 328 330 330 330 331 331 330 329 330 330 331 333 334 332 328 324 326 332 334 334 334 333 333 333 333 333 333 333 333 333 332 332 331 331 331 331 330 330 330 330 330 330 330 329 329 327 327 326 326 326 325 324 325 326 326 325 324 323 323 323 324 325 325 325 325 324 325 325 324 325 325 325 325 325 325 324 323
330 330 330 329 328 327 328 328 329 330 332 331 332 334 332 330 330 329 328 329 328 329 330 330 331 332 332 332 331 331 331 332 333 331 330 326 324 328 332 333 333 333 333 332 332 332 332 333 333 333 332 332 331 331 331 330 331 330 330 330 330 330 330 330 329 328 327 327 327 326 326 325 325 325 326 325 324 323 322 322 323 324 324 325 325 324 324 324 324 324 324 325 325 324 324 324 324
329 329 329 328 327 327 327 328 328 330 331 330 332 336 334 329 330 330 328 328 328 328 329 329 330 331 332 332 332 332 332 333 334 332 331 328 325 325 328 330 332 332 332 332 331 332 332 332 332 332 332 332 331 331 331 331 331 331 330 330 331 330 330 330 329 328 328 327 327 327 326 326 325 326 326 325 325 324 323 323 324 324 324 324 325 325 324 324 324 323 323 324 325 324 324 324 324
329 329 328 327 327 327 328 328 330 332 331 330 332 335 334 330 329 330 329 330 329 329 329 329 330 329 329 331 330 330 331 331 332 331 331 329 326 325 325 326 329 330 330 330 330 331 331 331 331 332 332 332 332 331 331 331 331 331 331 330 330 330 330 329 329 329 328 328 327 327 327 326 326 326 326 325 325 325 324 324 324 325 324 324 324 324 324 324 324 323 323 323 323 324 324 323 323
329 327 328 328 327 328 328 328 329 330 329 329 331 334 335 334 330 329 329 330 331 330 330 330 330 330 329 330 330 330 329 329 330 330 330 330 327 326 325 324 326 327 328 328 330 330 331 331 331 332 332 332 332 331 331 330 331 331 331 330 330 330 329 329 329 329 329 328 328 328 327 327 326 326 326 325 325 325 325 325 324 325 325 325 324 324 324 324 324 324 323 323 323 323 324 323 322
327 328 328 327 326 327 327 328 329 328 329 330 329 331 336 334 329 329 330 330 330 330 330 330 330 331 331 330 330 330 329 329 329 329 330 329 327 326 326 326 325 325 326 328 328 329 330 331 331 331 332 332 332 331 331 330 330 330 331 331 330 330 329 328 329 329 329 329 328 328 327 327 327 326 326 326 325 325 326 326 325 325 325 325 325 325 325 324 324 324 324 323 323 323 323 323 323
327 328 327 326 330 330 329 330 329 329 331 331 328 329 334 333 327 327 330 329 328 328 328 328 329 331 332 332 330 330 329 329 330 329 330 328 326 326 327 327 326 326 326 327 327 328 329 330 331 332 332 332 332 332 331 331 330 330 330 330 330 330 329 328 328 328 328 328 328 328 328 327 327 327 326 326 326 325 325 326 326 325 325 325 326 326 325 325 325 324 324 324 324 324 324 324 324
327 328 328 330 334 334 333 331 329 329 332 331 327 326 331 333 329 325 328 327 327 327 328 328 329 330 332 333 332 330 329 330 331 331 330 328 325 326 327 326 327 327 326 326 327 328 329 330 331 331 332 332 332 332 332 331 330 330 330 330 330 330 329 329 328 328 328 328 328 328 328 327 327 327 327 326 326 326 326 326 326 325 325 325 326 326 326 326 326 325 325 325 325 325 324 324 324
327 328 329 330 331 332 332 330 329 331 333 331 328 326 329 333 330 325 326 326 325 326 327 329 330 330 330 332 332 331 331 331 332 332 332 330 328 327 326 325 326 326 326 326 326 327 328 329 330 331 331 331 332 332 332 331 331 330 330 329 330 330 330 329 328 328 328 328 328 328 328 328 328 327 327 326 326 326 325 325 325 325 325 325 325 326 326 326 326 326 325 325 325 325 325 324 324
327 329 330 329 329 330 329 328 330 331 331 332 331 329 330 331 327 325 326 326 326 325 325 328 330 330 330 331 331 332 332 333 332 333 333 332 332 330 327 325 325 326 326 326 326 327 328 329 330 330 331 331 331 332 332 331 331 331 330 329 330 330 330 329 328 328 328 328 328 328 328 328 328 327 327 327 326 325 325 325 325 325 324 324 325 325 326 326 326 326 326 326 325 325 325 325 324
326 327 328 328 328 328 327 326 328 328 328 329 330 330 332 331 326 326 325 324 325 325 325 327 328 330 331 332 333 334 335 334 333 333 334 333 333 332 327 324 325 326 326 326 326 327 328 329 329 330 330 331 331 332 332 331 332 331 330 330 329 329 330 329 329 328 328 328 328 328 328 328 328 328 327 327 326 326 325 324 324 325 324 324 324 325 326 327 327 326 326 326 326 326 326 325 325
325 324 326 326 325 327 327 326 327 328 328 329 329 330 333 332 327 327 326 325 324 324 325 327 328 332 334 335 336 336 336 335 335 334 332 333 334 332 327 326 326 326 327 327 327 327 327 328 329 330 330 330 331 332 332 332 331 331 331 330 329 329 329 329 329 328 328 328 328 329 329 329 328 328 327 327 327 326 325 325 324 325 325 324 324 324 325 326 327 326 326 326 326 326 325 325 325
326 324 326 326 324 325 326 327 328 330 330 331 330 331 333 329 324 326 327 327 326 325 324 325 325 327 330 332 334 335 335 334 335 337 338 339 338 329 326 327 327 327 327 327 327 326 326 327 327 328 329 329 330 330 332 332 332 331 331 330 330 329 329 329 329 329 329 328 328 328 329 329 329 328 328 327 327 326 326 325 325 325 325 325 324 324 325 326 327 326 326 326 326 326 325 325 325
326 326 327 326 323 324 326 327 326 327 327 328 328 329 332 330 327 326 325 327 328 328 326 324 324 325 325 328 331 332 333 333 333 338 341 344 342 331 326 327 327 327 327 327 326 326 325 325 325 326 326 327 328 329 330 331 331 331 331 330 330 329 329 328 329 329 329 329 329 329 329 329 329 329 328 328 328 327 327 326 325 325 325 325 325 324 324 325 326 326 326 326 326 326 325 325 325
326 326 325 324 324 325 325 326 325 325 325 325 324 326 331 334 332 328 326 328 329 329 328 326 326 327 327 328 330 331 333 333 332 334 338 341 341 332 325 325 327 327 327 326 326 326 325 325 324 324 324 324 325 327 328 330 330 331 331 330 330 330 329 329 329 329 329 329 329 329 329 329 329 329 329 328 328 328 327 327 326 326 325 325 325 325 325 325 326 326 326 326 325 325 325 325 325
325 327 324 324 326 326 325 326 326 326 326 325 323 323 326 330 329 327 327 329 329 329 328 328 327 327 328 328 330 331 332 333 333 336 338 338 338 331 323 324 326 325 326 326 326 326 325 325 324 323 323 323 323 324 326 328 329 330 330 330 330 330 330 329 329 329 329 329 329 329 329 329 329 329 329 329 328 328 328 327 327 326 326 326 326 325 325 326 326 326 326 326 326 325 325 325 324
324 327 325 323 325 326 325 325 325 325 326 326 326 325 325 326 324 323 326 327 328 329 328 328 328 327 328 329 330 331 331 333 335 338 338 337 336 329 323 324 325 324 325 325 324 324 324 324 323 323 322 322 322 323 324 326 327 329 330 330 331 330 330 330 330 329 329 329 329 329 329 329 329 330 329 329 329 328 328 328 327 326 326 326 326 326 326 326 326 326 326 326 326 325 325 324 324
324 326 326 324 325 327 327 325 323 324 326 325 326 325 325 324 323 323 325 325 326 328 329 329 328 328 329 328 329 329 329 333 335 337 336 334 333 327 323 324 325 323 323 323 322 322 322 323 323 322 322 321 321 321 322 323 325 327 329 330 330 330 330 330 330 329 329 329 329 329 329 329 329 330 329 329 329 328 328 328 327 327 326 326 326 326 326 326 326 326 326 326 325 325 325 324 324
322 323 324 324 325 327 328 326 325 325 325 324 325 325 324 324 325 325 324 325 326 327 329 329 328 328 327 327 328 328 331 333 333 333 332 333 335 330 322 321 322 321 321 321 320 320 320 321 321 321 321 320 320 320 320 322 323 325 327 328 329 329 330 330 330 329 329 329 329 329 329 329 329 330 329 329 329 329 328 328 328 327 327 326 326 326 326 326 326 326 326 325 325 325 324 324 324
Wind_Speed
18 19 20 17 16 14 9 4 2 2 2 4 0 5 3 3 2 2 4 3 1 4 4 3 4 5 3 3 5 10 8 6 3 2 1 5 14 16 10 18 25 21 19 17 18 19 17 14 12 12 11 10 10 10 9 7 6 6 6 7 8 10 11 11 12 11 12 12 13 12 12 12 12 12 12 13 13 14 14 14 14 14 14 14 15 14 14 14 14 14 14 14 15 16 16 16 16
19 20 18 17 15 8 3 1 2 3 3 2 3 4 3 3 1 3 5 4 4 4 4 4 5 4 3 3 1 6 8 8 6 5 4 12 16 11 12 21 22 21 19 18 19 18 17 16 13 12 11 10 9 9 7 6 6 6 6 7 9 11 10 11 12 11 11 12 12 12 11 11 11 12 12 12 12 13 14 14 14 13 14 14 14 14 14 13 13 14 14 14 14 15 15 15 15
18 19 18 17 11 4 2 2 2 4 3 1 4 2 3 3 3 7 8 8 6 5 4 4 3 2 2 2 1 4 5 6 9 7 5 14 13 12 16 20 20 20 18 17 18 17 17 17 15 13 12 11 10 10 8 7 6 6 7 9 10 11 9 9 11 11 11 11 11 11 10 10 11 11 11 12 12 12 13 13 13 13 13 13 13 13 13 13 13 13 14 14 14 14 14 14 15
18 18 15 12 6 3 2 2 2 4 4 1 3 2 2 3 7 9 8 7 4 3 3 2 2 1 2 2 3 5 5 5 9 8 7 12 14 16 18 20 20 18 18 17 18 16 15 17 16 14 12 11 11 11 9 8 6 6 8 9 10 11 10 9 9 10 10 10 11 10 9 10 10 10 10 11 11 11 12 13 13 13 12 12 12 12 12 12 13 13 13 13 13 13 13 14 14
18 18 14 7 2 2 2 2 3 3 3 2 3 3 3 4 8 8 6 5 3 2 1 1 1 1 1 2 3 3 3 4 9 11 11 13 18 20 18 22 21 18 18 17 19 16 14 16 16 14 12 11 12 12 11 9 7 6 8 9 10 11 11 9 7 8 8 8 10 10 9 10 10 9 9 10 10 11 12 12 13 12 12 12 11 11 11 12 12 12 12 12 12 12 12 12 13
16 17 13 7 2 2 1 3 4 3 2 3 3 3 4 5 7 7 5 5 3 3 3 1 1 1 2 3 4 4 2 5 8 10 13 16 22 22 19 22 20 19 18 17 19 17 14 15 15 13 11 11 12 13 11 9 7 7 9 10 11 11 11 9 7 7 8 7 9 10 10 10 9 9 9 9 10 11 11 11 12 12 11 11 11 11 11 11 11 11 11 11 11 11 11 11 11
13 12 7 4 2 2 2 4 5 2 2 4 3 4 4 5 7 7 5 4 2 2 1 2 2 2 1 4 5 6 6 7 10 11 16 20 24 23 20 22 20 19 18 17 17 16 15 14 13 11 11 11 12 13 12 9 8 8 9 10 10 10 10 8 8 8 8 8 9 10 10 9 8 8 9 10 11 11 11 11 11 11 11 11 10 10 10 11 11 10 10 10 10 10 10 10 10
11 4 2 2 2 2 3 5 6 1 1 2 5 5 4 6 5 6 5 3 3 3 3 0 1 2 2 4 3 4 8 11 13 15 20 22 23 23 20 20 21 20 18 17 15 15 16 14 13 11 11 12 13 15 12 9 9 10 10 9 8 9 9 8 7 8 7 8 9 11 9 7 7 7 8 10 10 10 10 10 10 10 10 10 10 10 10 10 10 9 9 9 9 9 9 9 9
10 4 1 2 3 3 4 5 5 1 4 3 5 4 3 4 3 5 5 3 3 3 4 4 3 1 0 4 5 5 7 12 17 18 21 22 23 24 19 18 21 21 19 18 15 16 17 15 13 12 11 12 14 15 13 12 11 12 11 9 7 8 9 7 7 8 8 8 9 11 8 6 7 7 7 8 8 9 10 10 10 9 10 10 9 9 9 9 9 8 9 9 8 8 8 8 8
6 4 2 2 3 4 4 5 4 0 5 5 5 5 2 2 2 3 5 5 5 2 4 4 2 2 3 5 5 4 9 14 19 18 19 21 22 22 18 17 21 21 19 17 16 18 18 15 13 12 12 13 14 13 12 13 13 12 12 10 6 6 9 9 7 8 8 8 10 10 8 7 6 6 7 7 7 9 10 9 9 9 9 9 9 9 9 9 7 7 8 8 8 8 7 7 7
3 3 1 1 4 4 5 4 2 0 5 5 4 7 4 2 2 2 3 4 5 3 5 4 1 3 2 4 3 5 15 16 18 19 19 21 21 20 18 18 20 19 18 18 18 18 18 15 14 12 12 13 14 12 10 12 13 13 12 12 9 7 8 10 9 8 8 8 10 9 7 6 6 6 6 7 6 7 9 9 9 9 9 8 8 8 8 8 7 6 6 7 8 7 7 7 7
3 3 1 2 4 4 5 5 4 1 5 4 4 6 4 3 3 3 3 3 6 4 5 4 0 0 3 2 2 8 15 15 18 20 20 20 19 18 17 20 20 17 17 18 18 18 18 15 13 12 11 12 13 14 12 12 13 13 14 13 11 9 8 9 10 8 7 8 9 9 7 6 6 6 6 5 5 6 7 8 9 9 9 8 8 8 7 7 7 6 6 7 7 7 7 7 6
3 3 3 3 3 4 5 5 5 4 0 2 5 7 5 5 4 3 3 2 6 4 4 7 2 2 2 2 4 8 12 15 19 20 21 19 18 17 17 19 19 17 16 17 17 18 17 15 14 12 11 11 13 14 12 13 13 13 15 13 11 10 9 10 9 9 8 8 9 9 8 7 6 5 5 4 4 4 5 7 9 10 9 8 8 8 7 7 7 7 6 6 6 6 6 6 5
2 3 3 3 4 5 5 4 4 5 2 3 5 6 5 4 4 3 2 3 4 3 3 5 3 1 1 3 4 5 9 18 21 20 20 18 18 17 17 19 19 18 17 17 17 16 16 15 15 13 12 11 12 13 12 13 14 14 15 14 13 10 10 11 10 10 9 9 10 9 9 8 6 5 4 3 3 3 4 6 8 10 10 9 8 8 7 6 6 7 7 7 6 6 5 5 4
2 3 3 2 4 4 5 4 3 5 2 4 2 4 5 2 1 0 1 1 2 3 5 6 3 1 2 3 2 5 13 21 21 21 19 18 18 17 17 19 19 18 17 18 17 16 15 14 14 13 13 13 12 13 13 13 14 15 15 15 14 12 11 11 10 9 9 9 9 10 9 8 7 5 4 3 3 3 3 6 7 9 10 10 9 8 8 7 6 7 7 6 6 6 4 4 3
2 2 2 2 4 4 4 4 2 4 0 4 2 3 5 3 2 1 2 2 2 2 3 4 2 1 4 6 6 12 18 21 20 20 20 18 18 17 17 18 18 18 17 18 18 17 16 15 16 14 12 14 12 12 13 13 15 15 15 16 15 14 13 12 11 9 9 9 9 10 9 9 7 6 5 3 3 3 4 5 6 9 9 10 11 10 9 8 7 6 6 6 6 5 4 3 3
1 1 2 3 4 5 3 4 3 2 2 4 4 4 5 3 1 0 1 2 2 2 1 4 4 2 6 9 13 19 20 20 20 19 19 18 17 18 18 18 18 18 18 19 19 19 17 17 19 16 12 14 12 11 13 12 14 16 16 17 16 16 16 14 12 11 10 8 9 9 9 9 8 6 6 5 4 3 4 5 6 8 8 9 11 11 10 9 8 7 6 7 6 5 4 3 2
2 2 3 4 5 5 5 5 5 2 1 4 5 4 3 4 4 1 2 2 1 3 3 4 5 7 10 14 19 21 20 19 19 19 18 17 16 16 17 19 19 18 19 19 20 20 19 19 20 18 13 15 14 12 14 13 12 16 18 18 17 17 17 17 15 13 12 10 10 10 10 9 8 7 7 7 6 5 5 4 5 6 7 7 9 11 11 9 8 7 7 7 6 5 4 2 2
4 3 4 5 6 6 6 7 6 4 1 3 5 4 3 2 7 3 2 4 4 4 4 5 6 8 10 14 20 21 20 20 19 18 17 17 16 16 16 18 20 20 20 21 21 22 21 21 21 20 15 15 17 15 16 14 12 14 17 18 18 19 19 18 17 16 14 12 12 11 11 9 8 10 9 9 9 7 5 4 4 4 5 6 7 8 9 9 8 7 7 7 6 6 4 3 3
4 3 4 6 7 8 9 10 8 4 4 3 0 4 2 2 6 3 2 4 6 7 5 6 7 8 10 11 18 21 20 20 19 17 16 16 16 17 17 17 20 21 22 22 22 23 23 23 22 21 18 18 19 19 17 16 13 13 16 17 16 18 19 19 18 18 15 13 13 12 12 10 10 12 11 12 11 9 7 6 5 5 5 5 6 8 8 9 8 7 6 7 7 6 4 3 4
4 5 6 7 8 8 9 10 8 4 2 3 2 4 2 2 5 3 3 3 4 7 7 9 9 9 12 11 15 19 19 19 19 18 17 17 16 16 17 18 19 20 21 22 22 24 24 24 24 23 21 20 21 21 20 18 16 14 15 16 15 15 17 18 18 18 16 15 15 12 11 12 13 14 13 13 12 10 9 8 7 8 7 6 6 8 9 9 9 9 7 7 7 6 6 4 4
5 6 8 10 10 8 8 7 5 5 3 1 2 2 3 2 5 4 5 4 4 3 3 7 10 11 14 14 14 17 16 16 18 18 18 18 17 17 16 17 18 18 20 22 23 23 24 23 23 24 23 22 22 22 20 18 17 16 15 17 17 16 15 16 17 19 18 17 17 14 13 14 16 15 13 14 13 11 10 9 8 7 7 7 6 7 9 9 9 9 9 8 8 6 6 5 6
6 6 8 10 11 9 10 6 3 5 5 2 4 3 3 3 4 5 6 6 5 1 5 2 1 5 17 19 15 14 13 14 17 19 21 21 21 20 18 18 19 20 20 21 22 23 24 24 23 23 23 23 23 22 21 19 19 18 16 17 19 18 16 16 17 19 19 18 19 17 16 17 17 16 14 14 13 12 12 10 8 7 8 8 7 8 9 10 9 9 9 8 8 7 7 8 10
8 7 8 10 11 10 10 7 2 3 3 4 4 4 3 4 3 4 7 8 9 2 5 5 6 8 15 16 12 13 14 15 18 22 23 23 24 24 21 20 19 20 20 20 21 22 24 25 24 24 24 24 24 23 21 20 20 20 19 18 20 20 19 18 17 18 19 19 20 19 19 19 18 17 16 15 14 14 14 12 11 9 11 12 9 9 11 12 12 11 11 11 10 9 11 13 13
11 9 7 9 10 10 10 8 3 3 3 4 5 5 5 5 3 5 6 6 7 4 5 5 5 8 11 10 10 11 12 15 17 20 22 22 23 23 21 20 19 20 21 21 22 23 24 26 26 25 25 25 25 24 22 20 21 21 20 20 21 21 21 20 19 19 20 20 20 21 21 20 19 18 17 16 14 15 16 15 15 14 15 16 14 13 14 14 14 14 15 14 13 13 15 15 14
7 6 7 9 10 11 11 8 6 3 2 4 7 8 7 7 5 6 8 7 7 4 5 5 6 7 8 9 10 10 10 13 16 19 21 21 21 22 22 22 20 22 23 22 22 23 24 26 27 26 26 26 25 24 24 22 21 22 22 22 21 22 22 21 21 21 21 20 21 22 22 22 21 19 19 18 16 15 16 16 17 17 17 17 17 17 16 15 15 15 15 15 15 15 15 13 12
6 7 10 12 12 12 12 11 10 6 4 6 8 9 8 7 5 6 7 7 8 8 7 7 7 7 8 8 9 10 10 13 18 19 18 19 19 21 23 24 23 23 22 23 24 23 23 26 28 28 26 25 25 24 25 24 22 22 22 22 21 22 23 22 21 22 21 21 21 22 23 24 23 20 20 20 18 17 18 18 19 19 19 18 18 18 17 17 17 15 13 14 15 14 14 13 13
7 9 10 12 13 12 11 12 11 5 4 7 7 10 9 5 7 8 7 4 4 6 9 9 8 7 7 8 8 8 9 14 19 18 17 19 21 23 24 27 27 24 23 24 25 24 24 26 28 29 28 26 26 25 25 25 23 22 22 22 22 22 23 23 23 22 23 22 21 21 23 24 24 22 19 19 19 19 20 21 20 20 20 20 18 19 19 17 16 15 14 14 15 15 15 14 14
4 7 9 10 12 12 12 11 10 6 5 6 3 8 10 8 11 10 7 5 4 4 7 7 8 7 7 8 7 7 9 14 17 17 19 22 24 25 26 28 29 26 26 25 24 25 25 26 28 28 28 28 28 27 25 25 25 23 22 22 22 22 21 22 23 23 23 23 22 21 22 23 25 24 21 19 19 20 21 21 22 22 22 21 19 19 20 18 16 17 17 17 18 18 18 16 15
3 4 5 8 9 12 11 8 11 9 7 7 4 6 8 9 14 13 8 9 9 8 9 8 7 7 7 7 6 7 9 11 15 19 22 23 24 26 26 27 28 29 27 25 25 26 26 26 27 28 29 30 30 29 26 26 26 24 23 22 22 22 21 22 23 23 23 23 23 23 23 23 25 25 24 21 20 21 22 21 22 23 22 21 20 20 20 19 18 19 18 19 21 21 21 20 19
2 1 3 4 6 9 8 7 11 11 7 8 7 8 8 6 10 11 9 12 12 12 12 10 9 7 7 8 7 7 9 12 17 21 23 24 24 26 26 26 27 28 27 27 27 28 27 27 28 29 30 31 30 30 27 26 26 25 24 23 23 22 22 23 23 23 23 23 24 24 25 25 25 25 25 24 23 23 23 22 22 23 22 21 21 21 21 21 21 20 19 19 21 21 22 22 22
3 2 4 4 8 9 7 7 10 11 8 11 10 7 6 8 9 9 8 10 13 14 12 10 10 9 8 8 8 8 8 13 19 21 23 24 25 25 26 26 27 29 28 28 29 29 28 28 29 30 31 32 31 31 29 26 25 25 25 24 23 23 23 24 23 24 23 23 24 25 26 27 27 27 26 26 25 25 25 24 22 22 22 20 20 21 22 23 21 21 20 20 20 19 19 20 21
4 5 6 6 8 8 7 9 11 11 8 10 13 7 3 5 8 8 10 11 12 12 11 10 11 11 9 7 8 8 7 10 14 18 23 24 25 26 27 27 28 30 30 29 29 30 30 30 30 30 31 33 32 32 31 28 25 24 25 25 24 24 23 24 24 24 24 24 24 25 27 28 30 29 27 27 27 27 27 26 24 23 22 21 20 21 23 24 22 20 20 21 21 19 19 19 19
6 6 7 7 9 8 6 8 9 10 11 9 11 10 7 6 9 10 10 10 9 10 10 10 10 9 9 7 7 8 8 8 9 15 22 25 26 27 27 27 28 30 31 31 30 31 32 31 32 31 30 31 32 32 32 31 28 24 23 24 25 25 25 25 24 24 25 26 26 26 27 28 30 30 28 28 29 28 27 26 25 24 22 22 22 22 23 24 23 21 21 21 22 21 21 21 20
9 7 7 7 9 10 8 8 4 3 10 12 11 11 11 9 11 12 12 12 9 8 8 8 8 7 7 7 7 8 9 9 10 16 23 25 26 28 27 27 28 29 30 31 30 30 31 31 32 32 31 31 32 32 32 32 29 26 24 23 25 26 25 26 26 25 25 27 29 28 28 28 30 31 30 30 31 30 28 27 26 25 24 24 25 25 24 24 24 23 23 22 21 22 23 23 21
10 9 8 7 8 8 8 8 4 1 4 9 10 11 11 10 11 11 11 11 11 10 8 7 7 6 6 6 6 7 8 9 11 19 24 25 26 27 27 27 28 29 30 30 30 30 31 31 31 33 33 32 32 31 31 32 30 29 27 25 26 27 27 27 28 28 27 28 30 31 30 30 31 32 32 32 32 32 30 29 28 26 25 25 27 27 27 26 26 25 25 23 22 22 23 23 22
10 10 9 9 8 7 8 6 3 4 2 7 9 10 11 10 10 11 10 10 12 13 12 10 8 7 7 7 7 7 7 7 11 19 24 26 26 26 27 27 27 28 28 29 30 31 32 32 32 34 35 34 34 34 34 34 34 32 31 30 30 30 30 30 30 30 30 30 30 31 33 33 32 33 33 33 33 33 32 31 30 29 28 27 28 28 28 27 26 26 26 25 24 23 23 22 22
13 10 8 9 9 8 8 5 3 5 4 6 7 9 12 11 10 11 11 11 13 12 13 12 11 11 9 10 10 9 7 5 7 12 17 22 24 26 27 26 27 28 30 31 32 34 34 34 35 36 36 35 36 37 37 37 38 37 36 36 34 32 32 33 33 32 32 31 31 31 33 33 33 33 33 34 35 35 34 32 31 31 30 29 29 28 27 27 26 26 26 26 26 26 25 23 21
12 8 8 9 8 6 7 7 4 3 3 4 5 9 12 11 12 13 13 13 12 10 12 12 11 12 11 11 11 10 9 6 6 8 11 17 21 25 27 27 29 31 31 32 34 35 35 35 36 36 37 38 38 38 38 39 40 40 38 37 36 33 32 33 33 32 32 32 32 32 33 33 33 33 34 35 36 36 35 34 32 31 30 30 30 29 28 28 27 27 27 27 26 26 27 26 24
10 8 8 8 8 7 5 5 5 4 4 5 6 9 10 10 11 13 14 15 13 11 13 13 12 11 11 12 11 10 11 9 8 8 10 14 19 23 26 28 31 30 30 32 34 35 35 36 37 37 38 39 40 40 40 40 38 38 36 33 33 32 29 29 30 30 31 32 33 34 34 34 34 35 36 36 37 37 36 36 34 32 31 31 32 32 31 31 30 30 29 29 27 25 26 28 28
11 12 11 10 10 10 7 4 4 5 5 6 6 9 10 9 10 11 11 13 15 14 14 15 13 10 10 10 11 11 11 11 11 11 11 12 16 21 27 30 30 30 31 33 36 36 36 38 39 39 39 40 41 41 42 39 34 33 31 27 27 28 27 26 28 30 32 33 34 35 35 35 36 37 38 38 38 38 37 36 35 34 32 32 33 33 33 33 33 33 32 31 31 28 26 25 26
10 12 13 13 11 11 9 6 3 4 6 6 5 7 10 8 10 12 10 11 15 14 15 17 13 11 12 11 10 11 11 10 10 12 12 12 16 22 27 30 30 30 33 36 38 39 38 39 41 40 40 40 41 41 41 39 34 34 33 30 29 29 29 30 35 38 38 38 38 37 36 36 37 38 39 39 38 38 37 36 35 35 34 34 34 35 34 33 33 34 34 34 34 33 28 23 23
9 11 13 15 14 11 9 7 5 4 5 3 6 7 11 7 9 11 9 11 16 15 15 16 13 13 14 13 12 11 12 12 11 12 13 13 15 17 22 29 32 33 37 40 39 39 40 41 41 42 41 40 41 41 40 40 37 36 37 37 36 35 34 36 40 41 41 41 39 37 37 37 38 39 39 39 38 38 37 36 36 35 35 35 35 35 35 34 33 34 34 35 35 34 31 27 25
8 8 11 13 14 13 10 8 6 5 5 4 4 6 9 9 9 9 8 10 13 13 14 14 13 14 15 14 14 14 13 13 13 14 15 15 16 17 20 29 35 38 40 40 38 39 42 42 41 41 42 41 41 40 41 42 42 40 39 39 38 38 38 38 40 39 38 37 37 37 37 38 39 40 40 40 39 38 37 37 37 36 36 36 35 35 36 35 34 33 33 34 34 33 33 32 29
5 2 5 8 8 9 7 6 6 5 5 8 9 7 8 13 10 7 9 13 14 14 13 13 12 13 14 15 15 14 14 14 14 15 15 15 17 22 26 29 35 40 41 39 39 41 43 42 41 40 40 41 41 41 41 43 45 43 41 40 39 40 39 37 35 35 35 35 36 37 37 37 38 39 40 40 40 39 39 39 38 38 38 37 36 36 35 35 34 34 33 34 34 34 34 33 31
3 6 4 2 2 1 1 3 4 3 6 10 11 8 7 14 12 7 9 13 15 14 12 12 12 12 11 13 14 14 14 13 14 14 14 14 19 27 31 32 34 36 39 40 41 41 40 40 39 39 40 41 41 42 42 43 45 44 42 41 40 40 38 35 31 32 34 34 35 36 36 37 37 38 40 41 41 41 41 40 40 40 40 39 38 37 36 34 35 35 34 34 34 35 35 34 33
6 5 4 3 4 3 3 1 0 1 6 11 14 13 10 14 14 8 9 12 13 11 11 11 12 12 11 10 11 13 13 12 11 11 12 14 21 28 31 32 33 34 36 38 39 39 39 39 39 40 41 42 42 42 43 44 45 45 44 43 43 42 39 35 33 33 34 34 35 36 36 36 36 38 39 40 42 42 41 42 42 42 41 39 39 39 38 36 35 35 35 34 34 35 35 34 34
6 4 5 4 1 1 2 1 1 4 7 9 14 16 14 15 14 7 8 13 14 13 13 11 11 13 12 11 10 11 11 11 10 10 10 12 16 20 23 27 30 32 31 32 34 37 38 39 39 40 41 41 42 42 43 44 44 45 46 45 45 44 39 37 37 37 36 36 37 35 34 35 36 37 38 39 42 42 42 42 42 42 41 41 40 40 40 38 36 35 35 35 34 34 35 34 34
6 5 6 4 2 1 3 4 4 6 9 8 11 14 14 16 17 11 11 14 14 15 15 13 12 12 12 12 11 10 10 10 10 10 10 10 11 13 16 21 25 27 27 28 30 32 34 36 37 37 39 41 42 41 42 44 44 45 47 46 45 44 40 39 39 38 37 37 37 35 34 35 36 36 38 41 44 44 43 43 43 43 43 42 41 39 38 38 37 35 35 36 35 35 35 35 35
9 8 7 8 7 5 7 7 6 7 10 11 12 10 7 9 13 13 18 21 16 15 15 14 14 13 12 11 10 9 9 10 10 10 10 11 11 11 13 18 21 22 25 27 29 31 32 33 35 37 39 41 41 40 41 42 44 45 46 46 45 43 41 41 40 39 38 36 35 36 37 38 38 39 41 43 44 43 43 43 43 43 43 42 40 38 37 37 38 37 36 36 37 36 36 35 36
11 10 8 8 7 5 7 7 7 7 8 8 9 7 5 6 9 9 14 19 18 18 17 14 13 11 9 9 9 9 9 9 9 9 11 11 11 11 12 16 19 21 24 25 28 31 32 34 36 37 39 39 39 39 40 40 43 44 44 44 44 43 42 42 41 41 39 37 36 37 38 40 40 41 43 42 41 41 43 44 43 42 42 41 39 38 37 37 37 38 37 36 36 36 35 36 35
8 6 6 8 9 7 5 4 5 3 4 3 4 4 3 5 12 9 8 12 12 16 18 18 18 15 11 10 9 8 8 8 8 8 9 10 10 10 13 16 19 22 24 25 28 30 33 35 36 37 39 37 37 38 39 40 42 41 42 43 44 43 42 41 40 40 39 39 39 39 39 40 41 41 40 40 39 41 42 43 43 42 41 40 39 38 37 37 37 37 37 36 35 35 35 36 35
4 6 7 7 6 5 3 5 4 2 6 5 3 6 2 4 12 10 13 15 9 10 15 18 20 19 17 14 10 9 8 8 10 9 9 9 8 9 13 16 19 22 24 26 29 31 33 35 35 35 37 35 36 38 40 40 39 39 40 42 42 42 42 41 40 39 39 38 38 39 39 39 39 39 38 38 38 40 41 41 42 41 40 39 39 38 38 38 37 37 37 36 36 35 34 35 35
4 5 8 3 3 2 1 4 5 5 9 6 6 12 5 2 7 6 11 14 9 10 13 14 16 16 16 15 12 12 11 11 13 11 9 9 8 8 12 17 21 24 25 26 29 31 32 34 34 35 35 35 36 37 38 38 38 38 39 40 41 41 41 41 41 39 37 36 37 38 38 38 39 39 37 37 37 38 39 40 40 40 40 39 39 38 37 37 36 36 36 36 36 34 33 34 33
7 3 7 6 2 3 5 3 5 7 8 6 11 16 9 7 10 7 8 11 10 11 12 12 15 15 14 14 13 13 12 11 11 9 8 8 8 10 14 19 22 24 24 25 26 27 28 31 32 34 34 35 36 35 36 37 37 37 37 37 39 39 39 39 39 38 36 36 38 39 39 39 38 37 37 37 37 38 38 39 39 40 39 39 39 38 37 36 36 36 35 35 35 34 34 33 33
8 2 4 6 3 5 7 5 5 6 8 7 10 13 7 8 13 14 14 14 11 10 11 12 14 14 13 12 12 12 12 11 9 8 8 9 10 12 15 18 20 21 22 22 22 23 26 28 30 32 33 33 33 34 35 35 35 36 35 35 36 37 38 37 37 37 37 37 39 39 39 38 37 35 36 37 37 38 38 39 39 39 39 38 38 38 37 36 36 37 36 35 34 34 34 34 33
9 6 7 8 4 2 4 7 6 6 7 7 9 11 6 6 11 15 18 18 15 12 11 11 12 13 13 12 13 13 12 11 10 9 10 11 10 10 12 14 15 17 17 18 20 22 24 26 27 30 31 30 31 33 35 35 35 35 35 35 35 35 36 36 36 37 38 39 39 38 38 37 36 35 36 37 38 38 38 38 38 38 38 38 38 38 37 36 37 37 36 35 34 34 34 34 33
12 10 10 10 8 4 4 7 6 5 6 6 7 11 6 3 5 10 13 15 14 14 13 12 12 13 13 14 16 14 12 11 10 10 10 9 7 7 8 9 9 10 12 16 19 21 22 23 24 25 26 27 30 31 33 34 34 34 35 36 35 34 34 35 36 36 37 38 38 37 36 36 36 37 37 37 38 38 37 37 37 38 38 37 38 38 38 38 38 38 36 35 35 35 35 35 34
Wind_Direction
334 335 335 331 310 307 302 264 264 263 209 256 197 95 65 48 66 130 122 132 151 81 52 58 48 25 47 1 61 77 43 32 32 12 104 142 146 158 161 139 141 139 140 147 148 139 135 140 140 138 135 136 136 132 128 124 127 125 125 117 112 111 112 115 114 118 120 120 116 112 108 104 102 100 96 92 89 91 95 96 95 93 90 88 88 88 89 89 89 90 90 90 91 90 88 88 88
334 334 335 334 308 290 307 268 273 269 233 239 67 77 118 116 135 110 106 94 73 80 69 63 50 34 45 341 44 92 61 52 68 72 111 132 143 161 140 135 140 138 143 151 148 143 146 150 147 139 134 136 137 137 129 127 127 124 127 121 121 118 116 119 118 120 120 120 118 114 109 106 103 100 98 95 95 95 97 99 98 96 92 90 88 87 88 89 89 90 90 90 90 90 90 91 94
332 334 335 335 313 248 266 293 254 282 293 53 74 85 145 123 98 75 71 77 74 86 80 72 72 40 302 277 33 78 87 78 91 92 119 135 147 166 150 140 138 139 145 148 146 149 155 157 154 144 145 145 148 153 138 135 132 120 121 122 126 122 123 125 124 125 122 122 119 115 111 106 105 103 103 101 100 100 102 103 101 98 96 93 90 88 89 89 89 89 89 90 91 92 92 94 99
330 330 322 323 321 264 275 248 246 295 311 35 80 83 86 78 91 78 71 77 74 99 105 132 125 40 313 321 41 79 90 82 107 111 138 156 163 161 151 144 141 141 144 145 146 154 160 160 156 151 158 155 158 163 149 145 138 123 120 126 131 129 130 129 133 132 124 125 123 118 115 113 111 107 106 106 106 105 106 105 104 102 98 96 93 91 90 91 91 91 92 93 94 95 94 95 100
327 321 303 284 314 315 298 280 281 280 301 14 80 87 68 70 93 91 88 86 69 65 49 192 116 83 89 358 353 88 100 92 105 117 142 162 165 155 145 144 143 142 145 145 148 158 163 161 158 158 161 154 161 167 159 149 138 131 125 128 131 133 137 135 141 139 132 133 130 125 123 122 113 105 104 108 109 108 107 106 105 104 102 98 95 94 92 91 92 93 95 96 97 98 97 96 97
321 320 299 249 259 317 275 280 274 242 315 16 74 92 76 74 94 101 102 96 74 54 19 302 75 23 110 75 48 56 79 124 114 123 137 145 156 154 144 146 144 142 145 144 152 161 162 163 160 159 156 149 159 164 161 152 141 136 126 128 132 137 141 139 145 147 145 146 139 131 129 127 110 99 102 108 111 111 109 108 108 106 104 102 99 98 97 96 95 95 96 98 99 100 99 98 96
311 323 308 239 258 275 250 266 269 264 8 359 56 87 87 90 101 114 126 123 116 103 52 323 25 345 125 111 80 52 51 105 124 135 138 140 151 152 148 150 145 145 146 143 153 159 158 162 159 153 151 151 158 157 158 159 148 136 128 136 143 145 143 144 155 154 150 151 147 137 135 131 110 96 99 109 113 115 115 113 112 109 107 104 102 99 100 100 99 98 98 101 100 101 100 100 97
288 290 325 295 295 239 250 264 266 251 75 358 60 64 76 105 120 131 148 164 157 156 161 188 3 328 185 155 115 80 70 93 117 131 138 142 149 152 152 152 148 147 146 147 155 158 156 158 154 150 151 157 161 154 152 157 150 142 142 151 157 154 148 149 155 154 149 149 149 143 144 132 112 100 100 112 117 120 121 118 114 113 112 108 107 104 103 104 103 104 103 105 105 105 102 99 98
275 236 278 293 281 269 267 259 265 223 124 114 92 66 48 103 138 145 151 150 138 165 159 161 183 222 134 125 103 104 97 106 119 128 137 144 149 153 155 153 151 148 144 151 159 156 156 158 153 149 151 158 163 159 153 154 155 155 155 156 162 163 161 156 147 153 149 146 151 149 150 137 118 106 103 114 120 125 123 119 118 117 115 112 113 111 110 109 108 112 112 112 109 105 101 99 100
280 223 263 302 289 286 274 261 268 275 110 108 114 123 120 135 170 167 167 149 132 156 121 105 167 242 343 99 106 121 124 124 126 130 140 146 150 152 156 156 152 150 148 154 159 157 158 162 160 153 150 153 159 163 163 163 163 163 163 157 161 171 171 170 161 157 153 150 153 155 156 141 125 113 109 112 119 127 124 123 124 122 119 118 118 117 117 117 116 115 116 115 109 106 103 99 98
295 231 200 282 276 272 270 276 293 96 106 102 114 123 136 168 188 197 190 146 125 131 98 81 177 241 282 107 91 120 132 137 133 136 144 148 153 152 156 158 155 156 155 156 159 162 162 164 164 158 154 152 157 163 167 174 170 167 168 162 165 171 170 180 180 168 159 160 159 160 160 144 133 123 117 110 112 126 129 131 129 125 126 125 124 123 126 127 125 121 121 120 113 109 105 101 96
283 282 262 242 256 267 276 302 325 331 115 137 144 121 138 163 197 204 197 156 127 138 132 153 171 133 226 152 107 136 139 145 139 142 146 149 155 155 156 155 157 162 162 159 160 165 164 162 163 163 160 155 160 168 169 172 175 176 175 171 176 173 167 179 186 184 174 170 167 163 161 152 144 133 125 113 103 119 134 140 135 132 133 133 133 132 134 134 135 138 138 129 120 115 107 102 95
253 279 286 271 271 282 290 313 321 305 112 159 134 124 152 159 201 206 187 176 139 158 162 169 125 43 224 94 123 150 147 148 143 145 148 150 154 157 159 154 156 163 164 163 162 165 166 165 165 170 169 160 163 174 176 171 174 179 182 183 186 182 173 179 185 190 184 178 175 168 166 160 156 146 135 122 105 117 137 147 143 139 137 140 144 143 140 139 151 158 151 139 131 125 114 106 96
272 284 284 291 302 296 292 288 308 311 339 59 96 129 159 154 199 202 166 185 144 139 119 133 107 46 255 105 144 163 146 146 145 147 148 150 153 158 159 157 160 161 163 164 162 165 168 170 172 179 176 170 168 175 182 180 178 179 185 191 192 190 183 186 189 194 191 185 181 174 173 169 169 163 149 138 116 117 134 149 150 145 144 149 152 149 148 150 168 170 156 149 144 138 123 112 100
300 312 296 282 292 285 284 276 300 308 358 71 83 149 148 106 168 149 70 175 109 103 94 88 87 73 20 68 139 148 141 142 144 148 147 149 153 157 156 157 163 163 167 165 164 171 174 176 180 187 181 179 178 179 187 188 187 185 188 194 197 197 194 195 194 197 197 191 189 182 180 179 181 174 170 164 132 123 136 151 155 151 151 156 156 153 161 169 179 177 165 159 150 148 133 116 104
258 311 299 262 261 259 278 287 256 256 101 111 168 169 146 72 25 56 10 14 99 130 105 99 128 118 59 64 95 122 135 140 144 146 146 149 152 157 156 158 166 168 175 172 171 175 176 178 183 194 187 185 190 187 192 194 195 194 193 197 201 200 201 204 201 201 198 194 192 188 191 191 191 190 192 186 160 143 138 150 153 155 159 164 164 162 172 182 186 183 176 173 162 156 142 127 109
227 271 264 253 248 247 258 267 253 218 118 136 164 179 167 119 48 35 28 315 122 144 177 127 130 102 89 103 115 123 134 140 144 146 145 149 154 158 158 165 171 172 180 179 179 181 181 181 184 194 186 185 195 189 195 204 199 199 200 201 206 205 205 210 211 210 204 201 194 193 198 198 202 205 207 203 188 177 155 149 153 166 172 172 174 174 180 187 190 188 182 180 174 170 160 147 109
203 200 226 243 243 241 242 254 274 286 155 145 153 191 218 150 159 130 101 254 202 155 185 141 111 94 108 123 127 130 138 142 147 149 148 154 160 164 165 171 174 176 182 186 189 188 188 187 186 192 184 183 193 187 196 213 206 202 206 206 210 209 209 213 217 216 212 211 206 201 198 196 207 209 209 205 195 193 181 168 167 181 187 186 186 188 191 192 193 193 188 182 181 185 179 166 121
212 220 221 233 244 251 262 270 281 299 348 113 147 173 258 165 149 138 157 200 197 193 202 171 145 115 119 131 134 137 145 149 156 158 158 165 169 173 176 177 177 180 184 189 194 193 191 191 189 191 187 182 190 190 195 212 213 206 207 209 212 211 212 214 217 218 217 217 215 213 205 196 205 211 207 202 204 202 190 192 200 202 204 201 198 201 203 203 201 198 196 193 194 199 188 179 183
205 220 237 235 240 255 264 274 285 309 349 333 222 128 194 196 126 132 212 209 199 202 206 186 186 160 147 147 143 146 152 156 164 168 169 175 178 179 181 183 185 185 187 190 196 197 195 194 193 194 192 186 190 193 194 205 212 210 208 208 211 213 213 214 216 217 216 216 216 218 210 198 206 216 209 201 209 209 201 210 228 234 228 220 213 211 211 214 216 212 210 206 205 209 196 177 208
202 207 233 245 247 258 257 268 293 295 294 299 318 103 192 216 122 151 201 229 222 207 211 197 197 178 157 158 157 155 157 161 169 175 176 181 187 186 185 188 191 191 189 191 197 200 199 197 197 197 195 191 193 196 196 201 208 211 205 201 207 215 213 213 215 212 210 210 214 215 202 198 209 217 214 207 209 210 211 223 239 243 239 233 226 226 220 219 226 228 226 220 219 219 209 188 207
227 228 227 244 254 264 267 278 339 357 26 357 284 170 216 180 141 183 203 227 234 187 233 204 193 183 164 162 163 162 162 165 173 180 181 184 190 192 190 189 191 195 193 192 196 200 202 201 200 200 198 196 196 198 199 198 201 206 203 198 203 213 212 212 212 208 207 205 210 209 194 200 210 215 216 210 208 211 219 227 232 232 230 226 224 237 230 222 232 235 232 230 227 223 224 221 224
228 246 235 245 252 260 277 293 33 26 360 319 268 257 236 204 173 197 210 236 255 68 43 40 172 157 159 161 162 166 169 171 177 183 185 186 189 192 193 191 191 195 194 192 195 198 201 202 202 202 201 200 199 199 200 200 199 202 205 200 200 208 211 210 209 205 206 204 207 206 198 203 207 210 213 208 205 209 220 222 220 219 223 226 230 242 228 221 234 233 231 236 232 221 230 234 232
242 239 240 248 255 256 265 273 153 131 274 280 302 314 275 231 200 204 210 226 246 250 76 72 38 82 137 153 162 171 174 177 183 187 189 190 191 193 193 192 192 193 195 196 197 198 200 201 201 203 203 203 203 202 202 204 203 201 203 204 201 204 207 208 206 202 206 206 207 206 203 206 207 208 211 214 208 204 211 212 211 213 217 221 225 237 221 216 229 224 218 226 228 220 224 230 232
257 243 247 253 259 261 259 264 238 164 216 275 290 289 267 250 260 257 240 234 236 214 120 118 87 100 134 152 168 176 179 181 184 188 192 195 194 193 194 195 192 191 196 199 198 200 201 201 200 202 203 204 205 204 204 206 207 205 203 205 205 204 205 207 205 204 207 206 207 209 205 205 209 211 211 216 211 203 206 208 210 210 214 218 215 226 225 216 226 229 220 216 218 222 225 232 239
276 277 289 283 274 269 268 272 265 240 213 254 258 246 244 251 268 264 243 247 254 216 149 150 144 148 160 163 173 182 184 183 184 187 192 196 194 194 196 197 197 195 197 198 199 201 202 201 201 201 203 204 205 204 205 206 209 209 206 206 206 207 207 205 205 207 209 206 206 209 207 206 208 210 212 215 213 210 210 210 214 213 217 221 217 223 228 219 219 229 230 221 218 225 232 236 243
331 312 298 293 290 278 268 266 251 235 218 229 244 246 244 236 232 241 224 221 240 231 201 179 169 180 183 177 180 184 187 189 186 185 188 191 193 195 197 198 201 200 196 196 199 200 201 201 202 203 203 203 204 205 206 207 209 211 210 209 208 210 210 206 204 207 209 208 208 210 210 209 207 208 214 218 218 219 218 216 218 218 220 221 219 222 227 226 222 222 228 228 225 227 233 233 236
332 320 309 291 288 280 263 263 252 223 212 222 235 255 254 231 222 225 221 221 237 237 222 196 183 193 196 190 185 182 191 193 187 185 184 188 194 196 197 199 202 201 198 197 198 198 200 201 203 203 203 203 205 205 207 209 209 210 212 212 210 212 215 210 206 207 208 208 210 213 213 210 207 205 212 218 218 219 219 218 218 219 221 221 220 222 226 229 226 221 217 221 225 222 226 232 234
308 321 326 300 290 275 258 260 252 214 198 209 216 260 249 225 236 232 214 239 258 259 248 215 188 191 204 201 190 183 191 190 185 187 192 193 196 197 200 202 202 201 202 201 198 197 200 202 203 203 203 205 206 205 207 210 209 210 213 213 211 213 216 214 210 209 208 209 209 213 216 212 208 205 208 214 216 218 219 220 220 219 222 221 220 224 227 224 224 227 220 217 220 217 218 222 225
250 298 309 301 295 267 252 253 253 235 203 191 184 254 246 215 233 234 208 221 233 239 240 227 204 192 200 206 196 187 189 190 189 194 197 196 197 200 204 205 203 203 203 201 198 198 200 201 202 202 203 206 208 207 207 211 210 210 212 213 214 213 214 215 213 211 210 210 209 212 215 214 212 209 208 211 214 217 219 221 221 221 223 223 220 224 228 222 220 228 227 223 225 223 221 222 223
163 272 269 274 274 261 254 238 239 239 204 182 197 243 253 232 236 235 216 209 215 228 228 219 219 205 194 199 201 196 191 195 198 199 199 198 198 200 204 205 205 204 202 200 199 199 199 198 199 200 202 205 208 207 207 211 212 211 210 212 215 214 214 215 214 213 212 212 211 211 213 214 214 213 209 210 214 217 220 221 221 222 225 226 221 222 229 227 221 224 228 230 232 232 230 230 233
134 182 238 230 245 262 274 255 236 236 209 183 202 240 246 239 246 247 245 225 211 224 229 218 221 220 206 194 198 204 198 197 201 203 201 200 199 199 202 203 202 203 202 201 200 199 198 199 200 201 203 204 206 206 206 209 213 213 212 212 215 215 215 216 215 214 212 212 215 213 214 213 214 214 211 210 214 217 220 222 223 224 225 227 222 219 226 231 228 223 225 229 232 234 235 236 238
171 206 230 216 231 254 267 261 247 248 242 192 200 228 237 241 252 241 245 242 220 219 231 224 220 226 220 200 193 203 204 198 200 204 204 202 202 202 202 201 201 203 203 202 201 199 199 200 201 201 203 204 205 206 206 206 210 214 214 213 215 215 215 216 216 216 213 211 214 216 216 215 215 215 211 209 213 216 219 221 222 224 224 224 224 222 223 229 232 227 225 227 230 231 231 235 237
197 201 228 224 227 242 252 253 243 245 257 226 205 231 245 259 275 269 264 259 232 212 228 232 220 223 224 207 195 198 201 205 203 202 203 203 204 204 204 203 202 202 202 203 203 202 202 201 202 202 203 204 203 205 206 206 208 211 215 216 216 215 216 216 216 217 216 212 212 215 217 216 217 215 210 209 213 215 218 220 220 221 222 221 222 223 222 225 229 228 227 228 230 229 226 228 232
203 195 215 224 224 234 244 255 260 256 259 239 211 228 238 237 252 264 272 275 264 229 227 240 232 229 228 214 206 201 199 207 206 200 201 204 204 204 204 203 202 202 202 203 203 204 203 202 203 202 201 202 203 204 206 206 206 208 212 216 219 218 216 217 216 217 217 215 214 214 215 217 218 216 212 210 214 214 215 219 220 219 220 220 219 220 221 222 223 224 225 226 229 231 229 228 229
201 206 214 221 225 230 228 239 257 46 284 254 230 242 248 238 236 243 251 255 258 249 234 234 236 240 241 231 225 214 205 211 206 196 198 203 205 202 201 201 202 201 201 202 201 202 202 201 202 202 202 202 201 200 202 203 203 205 208 212 216 217 215 215 216 217 217 218 217 215 214 216 217 218 216 212 214 214 213 216 218 217 218 219 219 219 219 220 220 221 222 223 225 230 232 231 230
212 220 222 225 231 234 218 215 199 141 208 261 257 271 272 262 254 246 246 243 242 243 236 230 226 230 240 241 242 234 222 219 203 192 193 199 203 202 199 200 200 199 200 200 200 200 201 200 201 204 204 202 200 198 199 200 201 202 205 208 211 213 213 213 214 216 217 219 220 218 217 217 217 219 219 214 213 215 215 215 216 216 216 218 220 221 221 220 221 222 223 223 223 226 228 228 228
225 226 226 228 230 236 232 214 166 146 190 252 259 275 276 273 277 266 258 250 242 238 237 237 227 221 228 231 234 238 238 222 186 182 188 193 196 197 197 198 198 198 199 199 200 202 202 201 202 205 204 203 203 202 201 202 204 205 205 206 208 210 212 212 214 215 216 218 219 219 219 219 217 217 219 217 214 215 216 216 216 216 216 217 220 222 223 222 222 222 224 223 223 226 227 225 222
228 229 232 236 224 227 238 224 197 157 194 250 249 260 266 264 268 270 266 261 254 243 239 242 232 222 222 223 223 227 233 225 190 186 193 194 194 193 194 197 200 202 202 201 203 204 202 202 203 205 205 204 205 205 204 206 208 209 209 209 207 208 212 215 216 216 218 219 220 220 221 220 217 217 218 218 217 217 217 216 216 217 217 218 219 220 222 222 221 221 222 222 222 225 229 230 224
228 228 233 240 227 222 232 211 201 202 226 257 255 259 264 256 253 255 260 265 266 258 248 242 235 226 219 215 216 218 222 222 212 205 202 202 199 193 194 199 202 203 202 203 206 204 203 204 204 205 207 207 206 207 209 210 211 211 211 212 209 207 210 214 216 217 218 221 222 222 223 221 218 217 218 219 219 219 218 218 217 217 218 219 219 220 220 220 219 219 220 220 220 221 225 230 228
225 224 229 238 232 232 238 220 208 218 235 253 264 274 265 244 244 245 247 259 262 261 255 248 238 234 232 219 213 216 216 214 212 212 208 205 204 200 201 205 204 203 203 206 208 207 206 206 207 207 208 208 208 209 211 210 210 210 209 210 208 206 209 210 210 213 215 217 220 222 223 221 219 218 218 219 220 220 219 220 219 218 218 218 220 221 221 221 221 219 219 219 220 220 221 226 227
228 222 226 236 236 233 237 239 236 243 246 224 210 268 269 235 232 238 230 239 248 249 249 246 237 232 238 233 222 219 218 216 213 213 212 207 207 206 205 207 207 205 209 212 212 211 210 210 210 210 209 210 210 211 210 207 206 207 204 201 199 199 201 204 207 211 213 214 218 220 220 220 219 218 218 219 221 221 220 219 218 219 219 218 220 222 222 222 222 222 221 221 222 222 222 225 226
230 212 211 227 236 236 232 228 224 237 255 215 169 238 270 250 225 228 222 230 237 238 240 242 239 236 236 234 230 224 220 223 223 222 221 215 210 205 204 206 207 209 214 216 214 212 212 212 212 211 210 211 211 212 209 205 204 206 204 202 202 200 201 205 210 214 215 215 217 217 218 219 219 218 219 220 220 220 220 219 218 219 220 221 220 222 223 222 223 224 223 223 224 224 223 224 227
227 206 196 209 222 228 230 229 234 246 269 270 216 233 272 269 241 231 239 248 245 240 239 237 235 235 234 233 233 229 225 225 227 228 226 224 218 212 207 206 208 213 217 216 213 212 213 213 212 211 210 210 211 211 209 206 206 206 206 207 208 209 210 211 212 214 216 216 216 217 218 219 219 219 219 219 219 220 220 220 219 220 221 222 221 222 224 223 223 224 224 225 225 224 223 224 227
225 155 181 201 212 221 224 229 241 252 259 259 243 227 265 271 253 221 231 247 251 249 247 244 239 232 229 230 230 230 231 230 230 231 229 227 225 223 220 215 213 215 216 215 213 214 214 213 212 210 210 210 210 210 209 209 209 208 209 209 212 215 217 217 214 213 214 214 215 216 217 218 219 219 219 219 219 219 220 221 220 220 221 222 222 222 224 225 224 224 224 224 224 224 223 224 226
141 90 127 144 70 97 191 226 242 255 243 247 241 218 243 270 261 216 213 233 241 246 247 248 248 242 231 224 225 228 231 232 231 230 230 227 226 226 227 227 223 218 216 216 216 215 214 212 211 209 209 210 210 210 210 210 211 209 210 212 214 217 218 217 215 213 213 212 213 215 215 216 217 217 218 218 218 219 219 220 221 222 223 222 222 222 223 224 224 224 223 223 223 223 223 223 225
128 115 149 97 63 57 47 48 49 288 243 241 241 222 222 263 263 225 218 235 236 240 240 236 238 244 243 229 223 225 227 230 230 228 229 229 229 228 228 229 229 225 220 216 215 214 212 211 210 209 210 211 211 211 211 212 211 209 211 213 215 218 217 214 213 213 212 210 211 213 213 215 215 216 217 216 218 219 219 220 222 223 223 223 223 223 222 222 223 224 223 223 224 224 224 223 225
133 149 164 135 94 31 21 39 172 239 242 235 235 223 217 246 258 227 221 234 230 236 239 230 224 229 237 237 232 228 225 226 227 228 230 231 233 231 228 229 231 230 225 218 215 213 211 210 209 209 211 212 212 211 211 212 211 210 212 214 217 219 217 214 213 213 211 210 211 211 212 212 213 215 215 215 217 219 219 220 221 222 223 222 222 223 223 222 223 223 222 222 223 224 225 224 224
158 167 142 153 190 200 221 219 214 233 242 230 219 215 212 240 256 248 243 238 225 232 237 232 228 224 227 231 233 232 226 225 225 226 231 230 231 230 227 228 228 228 227 223 219 215 212 211 209 209 211 212 212 212 212 212 212 212 213 214 217 219 218 217 217 217 215 213 212 210 209 210 211 211 213 215 218 218 218 219 220 221 222 222 221 222 223 223 222 222 223 222 223 224 224 224 224
184 184 164 184 194 212 224 222 230 233 240 232 216 214 213 245 255 237 239 244 234 234 234 230 233 229 222 220 223 227 222 223 225 224 229 230 230 228 225 226 227 226 226 224 221 215 211 211 210 210 214 214 213 212 212 212 212 214 215 215 217 218 219 219 220 220 219 216 214 212 212 212 212 212 214 218 219 218 218 220 221 221 222 222 221 221 222 223 222 222 223 224 225 225 225 225 226
198 194 187 200 191 211 222 215 227 235 249 235 207 209 195 218 242 218 230 241 231 229 232 230 234 226 215 217 217 223 223 221 226 229 235 236 231 226 220 222 225 227 226 221 217 213 209 209 210 212 216 216 213 212 212 212 214 216 216 216 217 218 219 220 221 223 221 218 216 215 216 216 216 217 219 220 220 218 219 221 221 222 223 222 222 222 221 222 223 223 223 225 225 226 225 226 227
209 189 189 212 205 216 239 235 221 220 285 252 191 227 195 236 266 261 256 257 230 223 227 229 236 234 235 240 227 221 224 224 231 236 240 240 230 218 212 217 223 226 225 218 213 211 208 210 212 214 218 217 214 213 213 214 216 216 217 218 219 219 220 221 222 223 222 221 219 219 219 219 219 220 221 220 220 220 221 221 221 222 222 222 223 223 221 220 221 222 222 223 224 225 225 226 227
192 193 202 211 202 204 243 267 250 247 270 252 224 265 282 302 281 253 242 255 238 217 219 220 230 231 233 239 230 223 226 231 237 234 229 226 224 220 216 217 221 223 222 218 215 213 212 213 214 216 219 219 216 215 215 216 216 217 218 219 220 220 220 220 221 222 223 222 222 222 222 222 222 222 221 220 220 221 221 220 220 221 221 221 222 222 220 219 219 221 222 222 223 224 225 227 227
176 198 200 168 54 92 191 263 254 246 258 249 243 256 240 234 270 229 221 236 219 214 219 215 221 220 219 224 221 221 222 228 235 230 221 220 222 230 229 228 228 227 225 223 220 219 217 217 217 217 219 219 218 217 216 217 217 217 219 219 220 221 221 221 222 222 222 222 222 223 223 223 224 222 221 220 220 220 220 220 220 219 219 220 220 220 219 218 218 220 222 223 225 224 225 227 228
206 176 179 161 111 189 191 230 233 230 249 249 246 251 232 211 250 256 238 233 215 216 219 215 218 212 211 218 219 222 223 226 231 223 216 222 224 230 231 233 235 233 230 227 223 221 219 220 220 220 221 221 220 219 217 218 218 218 220 220 221 221 221 222 223 222 222 221 222 223 223 224 224 222 220 220 220 219 219 219 219 219 219 218 219 219 218 217 217 219 221 222 225 225 225 228 228
205 150 171 180 191 205 196 201 220 227 239 246 250 251 226 207 240 251 250 246 233 218 213 215 217 210 209 218 221 225 224 222 220 207 210 223 227 230 230 232 237 237 234 230 224 221 221 222 222 222 223 222 220 219 218 218 218 219 220 220 221 221 221 222 222 221 221 221 223 223 223 224 223 222 221 220 220 220 219 218 218 218 218 217 217 218 218 217 218 219 220 221 223 224 224 227 228
193 199 204 199 193 204 201 200 208 224 231 236 250 254 229 194 226 236 239 243 239 229 219 212 212 209 210 219 224 225 226 221 211 201 210 222 224 226 227 232 239 239 235 229 225 224 223 223 223 223 223 220 218 218 218 218 218 218 219 219 220 220 220 220 221 221 221 222 223 223 223 223 223 222 221 220 221 221 219 218 217 217 217 216 217 217 217 217 217 218 219 221 223 223 223 225 226
193 203 207 207 200 185 210 216 206 218 236 231 246 260 255 203 232 232 234 241 239 233 227 209 204 206 209 224 230 225 222 217 210 208 213 215 208 198 197 207 218 217 217 220 222 222 221 221 223 225 224 221 219 219 218 217 217 217 218 219 219 218 218 218 219 220 221 223 224 224 223 222 222 222 222 221 221 220 219 218 217 217 216 217 218 218 217 217 217 217 218 220 222 222 222 224 225